Location: Binningen
(47.7924°N, 8.7261°E)
Time: 02:44:14
(UTC+00:00)

Cosmos 1733 Rocket - Pass Details

Date: 07 October 2021
Orbit: 604 x 627 km, 82.5° (Epoch: 16 October)

Event Time Altitude Azimuth Distance (km) Brightness Sun altitude
Rises 01:30:41 0° 7° (N) 2,905 7.1 -38.5°
Reaches altitude 10° 01:34:15 10° 38° (NE) 1,999 6.4 -38.1°
Maximum altitude 01:36:08 12° 63° (ENE) 1,840 6.1 -37.9°
Enters shadow 01:37:14 12° 78° (ENE) 1,895 6.1 -37.7°
